Zurück zum Katalog

DMSP 5D-2 F13 DEB

AktivSSO
NORAD 40395·DEBRIS·🇺🇸 United States

Gestartet Mar 24, 1995 von Vandenberg Space Force Base

Loading…

Nächste Überflüge (nächste 24 Stunden)

TLE

AktuellSource: Space-Track

Epoche: Sep 14, 2026, 18:46 UTC

1 40395U 95015G   26257.78253031  .00001107  00000-0  44321-3 0  9998
2 40395  98.5956 279.6948 0022576  14.8372 345.3469 14.30196973600482

Verfolge DMSP 5D-2 F13 DEB in Echtzeit mit AllMySat

Download on the App Store